Flight Track Log - Related Links

Times and Time Zones

All times are in EDT time to prevent confusion due to time zone crossing. See the UAL4234 flight status page for this flight to view local times or setup timezone preferences in your user account.

Time Position Orientation Groundspeed Altitude Reporting Facility
EDT Latitude Longitude Course Direction KTS MPH feet Rate Location/Type
Thu 06:40:08 PM 29.9764 -95.3417 97° East 180 207 700  Level Houston Center
Thu 06:40:51 PM 29.9539 -95.3733 231° Southwest 190 219 1,900 1,714 Climbing Houston Center
Thu 06:41:46 PM 29.9044 -95.3361 147° Southeast 275 316 3,500 1,519 Climbing Houston Center
Thu 06:42:10 PM 29.8897 -95.3036 118° Southeast 273 314 3,900 2,302 Climbing Houston Center
Thu 06:43:00 PM 29.9111 -94.7995 95° East  Level FlightAware Approximate
Thu 06:43:12 PM 29.8544 -95.2231 117° Southeast 279 321 6,800  Level Houston Center
Thu 06:44:00 PM 29.8998 -94.6650 97° East  Level FlightAware Approximate
Thu 06:44:14 PM 29.8286 -95.1375 109° East 281 323 9,000  Level Houston Center
Thu 06:45:00 PM 29.8850 -94.5310 97° East  Level FlightAware Approximate
Thu 06:45:16 PM 29.8069 -95.0475 105° East 288 331 11,500  Level Houston Center
Thu 06:46:18 PM 29.8150 -94.9467 85° East 312 359 12,600 1,258 Climbing Houston Center
Thu 06:47:20 PM 29.8228 -94.8297 86° East 359 413 14,100 1,824 Climbing Houston Center
Thu 06:48:23 PM 29.8328 -94.6969 85° East 347 399 16,400 1,536 Climbing Houston Center
Thu 06:49:25 PM 29.8431 -94.5753 84° East 377 434 17,300 1,258 Climbing Houston Center
Thu 06:50:27 PM 29.8514 -94.4478 86° East 395 455 19,000 1,548 Climbing Houston Center
Thu 06:51:29 PM 29.8617 -94.3233 85° East 393 452 20,500 1,065 Climbing Houston Center
Thu 06:52:31 PM 29.8581 -94.1933 92° East 407 468 21,200 581 Climbing Houston Center
Thu 06:53:33 PM 29.8544 -94.0533 92° East 438 504 21,700 532 Climbing Houston Center
Thu 06:54:35 PM 29.8714 -93.8775 84° East 463 533 22,300 581 Climbing Houston Center
Thu 06:55:37 PM 29.9028 -93.7300 76° East 477 549 22,900 528 Climbing Houston Center
Thu 06:56:40 PM 29.9417 -93.5800 73° East 487 560 23,400 576 Climbing Houston Center
Thu 06:57:42 PM 29.9828 -93.4169 74° East 490 564 24,100 677 Climbing Houston Center
Thu 06:58:44 PM 30.0203 -93.2669 74° East 489 563 24,800 774 Climbing Houston Center
Thu 06:59:46 PM 30.0581 -93.1150 74° East 498 573 25,700 1,113 Climbing Houston Center
Thu 07:00:48 PM 30.0950 -92.9681 74° East 484 557 27,100 1,258 Climbing Houston Center
Thu 07:01:50 PM 30.1306 -92.8236 74° East 475 547 28,300 1,306 Climbing Houston Center
Thu 07:02:52 PM 30.1728 -92.6492 74° East 472 543 29,800 1,306 Climbing Houston Center
Thu 07:03:54 PM 30.2081 -92.5056 74° East 469 540 31,000 1,152 Climbing Houston Center
Thu 07:04:57 PM 30.2428 -92.3636 74° East 464 534 32,200 1,152 Climbing Houston Center
Thu 07:05:59 PM 30.2781 -92.2219 74° East 462 532 33,400 1,113 Climbing Houston Center
Thu 07:07:01 PM 30.3119 -92.0831 74° East 454 522 34,500 1,016 Climbing Houston Center
Thu 07:08:03 PM 30.3517 -91.9158 75° East 452 520 35,500 726 Climbing Houston Center
Thu 07:09:05 PM 30.3858 -91.7750 74° East 455 524 36,000 484 Climbing Houston Center
Thu 07:10:07 PM 30.4181 -91.6450 74° East 459 528 36,500 484 Climbing Houston Center
Thu 07:11:09 PM 30.4578 -91.4703 75° East 466 536 37,000 240 Climbing Houston Center
Thu 07:12:12 PM 30.4936 -91.3200 74° East 481 554 37,000  Level Houston Center
Thu 07:13:14 PM 30.5308 -91.1650 74° East 496 571 37,000  Level Houston Center
Thu 07:14:16 PM 30.5672 -91.0072 75° East 506 582 37,000  Level Houston Center
Thu 07:15:18 PM 30.6039 -90.8469 75° East 513 590 37,000  Level Houston Center
Thu 07:16:20 PM 30.6422 -90.6836 75° East 521 600 37,000  Level Houston Center
Thu 07:17:22 PM 30.6847 -90.4886 76° East 520 598 37,000  Level Houston Center
Thu 07:18:24 PM 30.7219 -90.3264 75° East 518 596 37,000  Level Houston Center
Thu 07:19:27 PM 30.7586 -90.1642 75° East 517 595 37,000  Level Houston Center
Thu 07:20:29 PM 30.7950 -90.0008 75° East 518 596 37,000  Level Houston Center
Thu 07:21:31 PM 30.8344 -89.8400 74° East 514 592 37,000  Level Houston Center
Thu 07:22:33 PM 30.8947 -89.6903 65° Northeast 510 587 37,000  Level Houston Center
Thu 07:23:35 PM 30.9572 -89.5403 64° Northeast 511 588 37,000  Level Houston Center
Thu 07:24:37 PM 31.0308 -89.3597 65° Northeast 511 588 37,000  Level Houston Center
Thu 07:25:39 PM 31.0906 -89.2094 65° Northeast 510 587 37,000  Level Houston Center
Thu 07:26:42 PM 31.1506 -89.0600 65° Northeast 507 583 37,000  Level Houston Center
Thu 07:27:44 PM 31.2158 -88.8992 65° Northeast 507 583 37,000  Level Houston Center
Thu 07:28:46 PM 31.2775 -88.7503 64° Northeast 506 582 37,000  Level Houston Center
Thu 07:29:48 PM 31.3386 -88.5992 65° Northeast 509 586 37,000  Level Houston Center
Thu 07:30:50 PM 31.3994 -88.4469 65° Northeast 511 588 37,000  Level Houston Center
Thu 07:31:52 PM 31.4583 -88.2969 65° Northeast 503 579 37,000  Level Houston Center
Thu 07:32:17 PM 31.4853 -88.2369 62° Northeast 495 570 37,000  Level Atlanta Center
Thu 07:33:17 PM 31.5425 -88.0933 65° Northeast 495 570 37,000  Level Atlanta Center
Thu 07:34:17 PM 31.6014 -87.9472 65° Northeast 495 570 37,000  Level Atlanta Center
Thu 07:35:17 PM 31.6558 -87.8031 66° East 495 570 37,000  Level Atlanta Center
Thu 07:36:17 PM 31.7125 -87.6592 65° Northeast 495 570 37,000  Level Atlanta Center
Thu 07:37:17 PM 31.7708 -87.5150 65° Northeast 489 563 37,000  Level Atlanta Center
Thu 07:38:17 PM 31.8269 -87.3681 66° East 489 563 37,000  Level Atlanta Center
Thu 07:39:17 PM 31.8833 -87.2061 68° East 490 564 37,000  Level Atlanta Center
Thu 07:40:17 PM 31.9414 -87.0614 65° Northeast 490 564 37,000  Level Atlanta Center
Thu 07:41:17 PM 31.9992 -86.9139 65° Northeast 490 564 37,000  Level Atlanta Center
Thu 07:42:17 PM 32.0547 -86.7639 66° East 490 564 37,000  Level Atlanta Center
Thu 07:43:17 PM 32.1097 -86.6331 64° Northeast 495 570 37,000  Level Atlanta Center
Thu 07:44:17 PM 32.1647 -86.4875 66° East 495 570 37,000  Level Atlanta Center
Thu 07:45:17 PM 32.2242 -86.3369 65° Northeast 472 543 37,000  Level Atlanta Center
Thu 07:46:17 PM 32.2908 -86.2231 55° Northeast 460 529 37,000  Level Atlanta Center
Thu 07:47:17 PM 32.3828 -86.1050 47° Northeast 469 540 37,000  Level Atlanta Center
Thu 07:48:17 PM 32.4700 -85.9911 48° Northeast 469 540 37,000  Level Atlanta Center
Thu 07:49:17 PM 32.5658 -85.8700 47° Northeast 477 549 37,000  Level Atlanta Center
Thu 07:50:17 PM 32.6531 -85.7511 49° Northeast 483 556 37,000  Level Atlanta Center
Thu 07:51:17 PM 32.7422 -85.6367 47° Northeast 478 550 37,000  Level Atlanta Center
Thu 07:52:17 PM 32.8294 -85.5147 50° Northeast 478 550 37,000  Level Atlanta Center
Thu 07:53:17 PM 32.9183 -85.3997 47° Northeast 478 550 37,000  Level Atlanta Center
Thu 07:54:17 PM 33.0094 -85.2800 48° Northeast 473 544 37,000  Level Atlanta Center
Thu 07:55:17 PM 33.0961 -85.1644 48° Northeast 473 544 37,000  Level Atlanta Center
Thu 07:56:17 PM 33.1911 -85.0342 49° Northeast 473 544 37,000  Level Atlanta Center
Thu 07:57:17 PM 33.2797 -84.9133 49° Northeast 478 550 37,000  Level Atlanta Center
Thu 07:58:17 PM 33.3661 -84.7950 49° Northeast 478 550 37,000  Level Atlanta Center
Thu 07:59:17 PM 33.4544 -84.6736 49° Northeast 478 550 37,000  Level Atlanta Center
Thu 08:00:17 PM 33.5364 -84.5597 49° Northeast 472 543 37,000  Level Atlanta Center
Thu 08:01:17 PM 33.6183 -84.4256 54° Northeast 478 550 37,000  Level Atlanta Center
Thu 08:02:17 PM 33.6333 -84.2633 84° East 472 543 37,000  Level Atlanta Center
Thu 08:03:17 PM 33.6419 -84.0961 86° East 477 549 37,000  Level Atlanta Center
Thu 08:04:17 PM 33.6503 -83.9289 87° East 495 570 37,000  Level Atlanta Center
Thu 08:05:17 PM 33.6561 -83.7617 88° East 495 570 37,000  Level Atlanta Center
Thu 08:06:17 PM 33.6619 -83.5919 88° East 500 575 37,000  Level Atlanta Center
Thu 08:07:17 PM 33.6675 -83.4272 88° East 493 567 37,000  Level Atlanta Center
Thu 08:08:17 PM 33.6747 -83.2575 87° East 498 573 37,000 -200 Level Atlanta Center
Thu 08:09:17 PM 33.6819 -83.0928 87° East 498 573 36,600 -450 Descending Atlanta Center
Thu 08:10:17 PM 33.6869 -82.9253 88° East 498 573 36,100 -400 Descending Atlanta Center
Thu 08:11:17 PM 33.6897 -82.7806 89° East 492 566 35,800 -350 Descending Atlanta Center
Thu 08:12:17 PM 33.6961 -82.6156 87° East 499 574 35,400 -459 Descending Atlanta Center
Thu 08:14:07 PM 33.7014 -82.2858 89° East 517 595 34,500 -491 Descending Jacksonville Center
Thu 08:15:08 PM 33.7131 -82.1261 85° East 512 589 34,000 -446 Descending Jacksonville Center
Thu 08:16:08 PM 33.7350 -81.9661 81° East 495 570 33,600 -454 Descending Jacksonville Center
Thu 08:17:07 PM 33.7756 -81.8108 73° East 477 549 33,100 -303 Descending Jacksonville Center
Thu 08:18:07 PM 33.8494 -81.6797 56° Northeast 462 532 33,000 -50 Descending Jacksonville Center
Thu 08:19:08 PM 33.9253 -81.5536 54° Northeast 462 532 33,000  Level Jacksonville Center
Thu 08:20:07 PM 34.0053 -81.4222 54° Northeast 467 537 33,000 -50 Level Jacksonville Center
Thu 08:21:08 PM 34.0808 -81.2928 55° Northeast 473 544 32,900 -800 Descending Jacksonville Center
Thu 08:22:07 PM 34.1542 -81.1661 55° Northeast 473 544 31,400 -1,613 Descending Jacksonville Center
Thu 08:23:07 PM 34.2297 -81.0392 54° Northeast 473 544 29,700 -1,736 Descending Jacksonville Center
Thu 08:24:08 PM 34.3008 -80.9119 56° Northeast 473 544 27,900 -1,750 Descending Jacksonville Center
Thu 08:25:07 PM 34.3778 -80.7717 56° Northeast 480 552 26,200 -1,279 Descending Jacksonville Center
Thu 08:27:11 PM 34.5250 -80.5175 55° Northeast 482 555 24,000 -750 Descending Washington Center
Thu 08:28:11 PM 34.5994 -80.3833 56° Northeast 476 548 23,900 -350 Descending Washington Center
Thu 08:29:11 PM 34.6825 -80.2367 55° Northeast 476 548 23,300 -450 Descending Washington Center
Thu 08:30:11 PM 34.7586 -80.1019 55° Northeast 476 548 23,000 -150 Descending Washington Center
Thu 08:31:11 PM 34.8436 -80.0003 44° Northeast 476 548 23,000 -400 Level Washington Center
Thu 08:32:11 PM 34.9394 -79.8942 42° Northeast 466 536 22,200 -900 Descending Washington Center
Thu 08:33:11 PM 35.0331 -79.7875 43° Northeast 456 525 21,200 -1,000 Descending Washington Center
Thu 08:34:11 PM 35.1283 -79.6858 41° Northeast 456 525 20,200 -950 Descending Washington Center
Thu 08:35:11 PM 35.2233 -79.5864 41° Northeast 456 525 19,300 -988 Descending Washington Center
Thu 08:35:36 PM 35.2747 -79.5508 29° Northeast 444 511 18,800 -1,200 Descending Washington Center
Thu 08:36:01 PM 35.3258 -79.5175 28° Northeast 439 505 18,300 -947 Descending Washington Center
Thu 08:37:11 PM 35.4350 -79.4364 31° Northeast 407 468 17,300 -1,240 Descending Washington Center
Thu 08:38:02 PM 35.5056 -79.3811 33° Northeast 344 396 15,800 -1,892 Descending Washington Center
Thu 08:39:02 PM 35.5647 -79.2919 51° Northeast 329 379 13,800 -1,767 Descending Washington Center
Thu 08:40:11 PM 35.6197 -79.1947 55° Northeast 328 377 12,000 -1,594 Descending Washington Center
Thu 08:41:10 PM 35.6767 -79.1053 52° Northeast 309 356 10,400 -1,563 Descending Washington Center
Thu 08:42:10 PM 35.7253 -79.0178 56° Northeast 306 352 8,900 -1,190 Descending Washington Center
Thu 08:43:11 PM 35.7753 -78.9408 51° Northeast 287 330 8,000 -885 Descending Washington Center
Thu 08:43:11 PM 35.7753 -78.9408 51° Northeast 305 351 8,000  Level Washington Center
Thu 08:44:11 PM 35.8331 -78.8894 36° Northeast 257 296 8,000 -400 Level Washington Center
Thu 08:45:11 PM 35.9044 -78.8744 10° North 252 290 7,200 -1,082 Descending Washington Center
Thu 08:46:13 PM 35.9661 -78.8333 28° Northeast 255 293 5,800 -1,268 Descending Washington Center
Thu 08:47:14 PM 36.0158 -78.7736 44° Northeast 246 283 4,600 -1,190 Descending Washington Center
Thu 08:48:14 PM 36.0214 -78.7122 84° East 210 242 3,400 -1,190 Descending Washington Center
Thu 08:49:15 PM 35.9678 -78.6972 167° South 190 219 2,200 -942 Descending Washington Center
Thu 08:50:15 PM 35.9356 -78.7319 221° Southwest 143 165 1,500 -700 Descending Washington Center

Login

Don't have an account? Register now (free) for customized features, flight alerts, and more!